Weather History for Milwaukee, WI

Change the Weather History Date:

Monday, January 21, 2013

  Actual Average Record
Temperature  
Mean Temperature 5 °F 22 °F  
Max Temperature 12 °F 29 °F 56 °F (1934)
Min Temperature -2 °F 15 °F -23 °F (1888)
Degree Days  
Heating Degree Days 60 43  
Month to date heating degree days 828 898  
Since 1 July heating degree days 3157 3458  
Cooling Degree Days 0 0  
Month to date cooling degree days 0 0  
Year to date cooling degree days 0 0  
Moisture  
Dew Point -7 °F    
Average Humidity 60    
Maximum Humidity 76    
Minimum Humidity 44    
Precipitation  
Precipitation T in 0.06 in 1.06 in (1959)
Month to date precipitation 0.93 1.23  
Year to date precipitation 0.93 1.23  
Snow  
Snow 0.10 in 0.40 in 10.20 in (1959)
Month to date snowfall 0.3 10.2  
Since 1 July snowfall 7.2 23.5  
Snow Depth T in    
Sea Level Pressure  
Sea Level Pressure 30.20 in    
Wind  
Wind Speed 14 mph (WNW)    
Max Wind Speed 25 mph    
Max Gust Speed 33 mph    
Visibility 9 miles    
Events Snow    
T = Trace of Precipitation, MM = Missing Value Source: NWS Daily Summary

Daily Weather History Graph

Daily Weather History Graph

Search for Another Location

Airport:

Trip Planner

Search our weather history database for the weather conditions in past years. The results will help you decide how hot, cold, wet, or windy it might be!

Date:

Astronomy

Jan. 21, 2013 Rise Set
Actual Time 7:16 AM CST 4:50 PM CST
Civil Twilight 6:45 AM CST 5:21 PM CST
Nautical Twilight 6:10 AM CST 5:55 PM CST
Astronomical Twilight 5:36 AM CST 6:29 PM CST
Moon 12:29 PM CST (1/21) 2:44 AM CST (1/21)
Length of Visible Light 10h 36m
Length of Day
9h 34m
Waxing Gibbous, 75% of the Moon is Illuminated
Jan 21
Waxing Gibbous
Jan 26
Full
Feb 3
Last Quarter
Feb 10
New
Feb 17
First Quarter

Hourly Weather History & Observations

Time (CST) Temp. Windchill Dew Point Humidity Pressure Visibility Wind Dir Wind Speed Gust Speed Precip Events Conditions
12:52 AM 10.9 °F 1.4 °F -4.0 °F 51% 30.19 in 10.0 mi WNW 5.8 mph - N/A   Mostly Cloudy
1:52 AM 10.9 °F -2.6 °F -4.0 °F 51% 30.19 in 10.0 mi WNW 10.4 mph - N/A   Overcast
2:52 AM 10.9 °F 0.2 °F -2.9 °F 54% 30.17 in 10.0 mi WNW 6.9 mph - N/A   Overcast
3:52 AM 10.0 °F -1.9 °F 1.0 °F 67% 30.15 in 10.0 mi West 8.1 mph - N/A   Mostly Cloudy
4:13 AM 10.4 °F -0.4 °F 3.2 °F 73% 30.09 in 5.0 mi West 6.9 mph - 0.00 in Snow Light Snow
4:52 AM 10.0 °F -5.9 °F -0.9 °F 61% 30.14 in 10.0 mi WNW 13.8 mph 23.0 mph 0.00 in   Scattered Clouds
5:48 AM 8.6 °F -6.3 °F 3.2 °F 79% 30.10 in 3.0 mi NW 11.5 mph - 0.00 in Snow Light Snow
5:52 AM 7.0 °F -8.3 °F 1.9 °F 80% 30.15 in 3.0 mi NNW 11.5 mph - 0.00 in Snow Light Snow
6:01 AM 6.8 °F -10.0 °F -0.4 °F 72% 30.10 in 7.0 mi WNW 13.8 mph 19.6 mph 0.00 in   Mostly Cloudy
6:52 AM 5.0 °F -9.1 °F -2.9 °F 70% 30.15 in 10.0 mi WNW 9.2 mph - 0.00 in   Partly Cloudy
7:52 AM 5.0 °F -8.1 °F -2.9 °F 70% 30.17 in 10.0 mi NW 8.1 mph - N/A   Scattered Clouds
8:52 AM 5.0 °F -13.6 °F -6.0 °F 61% 30.19 in 10.0 mi NW 16.1 mph 21.9 mph N/A   Scattered Clouds
9:52 AM 5.0 °F -15.2 °F -11.0 °F 48% 30.20 in 10.0 mi WNW 19.6 mph 33.4 mph 0.00 in   Scattered Clouds
10:52 AM 5.0 °F -15.2 °F -11.0 °F 48% 30.21 in 10.0 mi WNW 19.6 mph 31.1 mph N/A   Scattered Clouds
11:52 AM 5.0 °F -13.0 °F -13.0 °F 43% 30.19 in 10.0 mi WNW 15.0 mph 28.8 mph N/A   Partly Cloudy
12:52 PM 5.0 °F -13.6 °F -11.9 °F 46% 30.18 in 10.0 mi West 16.1 mph 27.6 mph N/A   Partly Cloudy
1:52 PM 5.0 °F -15.2 °F -11.9 °F 46% 30.19 in 10.0 mi NW 19.6 mph 27.6 mph N/A   Scattered Clouds
2:52 PM 6.1 °F -12.8 °F -11.0 °F 45% 30.20 in 10.0 mi WNW 17.3 mph 28.8 mph N/A   Scattered Clouds
3:52 PM 5.0 °F -14.2 °F -9.9 °F 50% 30.20 in 10.0 mi West 17.3 mph 23.0 mph N/A   Mostly Cloudy
4:52 PM 5.0 °F -13.6 °F -11.0 °F 48% 30.21 in 10.0 mi West 16.1 mph 26.5 mph N/A   Scattered Clouds
5:52 PM 3.0 °F -16.1 °F -11.9 °F 50% 30.23 in 10.0 mi WNW 16.1 mph - N/A   Partly Cloudy
6:52 PM 1.9 °F -16.9 °F -11.9 °F 52% 30.25 in 10.0 mi WNW 15.0 mph 21.9 mph N/A   Partly Cloudy
7:52 PM 1.0 °F -16.6 °F -11.0 °F 57% 30.27 in 10.0 mi WNW 12.7 mph 19.6 mph N/A   Partly Cloudy
8:52 PM 1.0 °F -17.3 °F -11.0 °F 57% 30.28 in 10.0 mi WNW 13.8 mph - N/A   Partly Cloudy
9:52 PM -0.4 °F -22.8 °F -13.0 °F 55% 30.23 in 10.0 mi NW 20.7 mph 29.9 mph N/A   Partly Cloudy
10:52 PM -0.9 °F -20.6 °F -13.0 °F 57% 30.30 in 10.0 mi NW 15.0 mph 20.7 mph N/A   Partly Cloudy
11:52 PM -2.0 °F -20.5 °F -14.1 °F 57% 30.31 in 10.0 mi NW 12.7 mph - N/A   Mostly Cloudy